Weather History for Imperial, CA

Change the Weather History Date:

Saturday, November 17, 2012

  Actual Average Record
Temperature  
Mean Temperature 72 °F -  
Max Temperature 81 °F 76 °F 87 °F (2008)
Min Temperature 63 °F 49 °F 32 °F (1958)
Cooling Degree Days 7    
Growing Degree Days 22 (Base 50)    
Moisture  
Dew Point 50 °F    
Average Humidity 52    
Maximum Humidity 70    
Minimum Humidity 29    
Precipitation  
Precipitation 0.00 in - - ()
Sea Level Pressure  
Sea Level Pressure 30.00 in    
Wind  
Wind Speed 10 mph (West)    
Max Wind Speed 15 mph    
Max Gust Speed 22 mph    
Visibility 10 miles    
Events      
Averages and records for this station are not official NWS values.
T = Trace of Precipitation, MM = Missing Value Source: NWS Daily Summary

Daily Weather History Graph

Daily Weather History Graph

Search for Another Location

Airport:

Trip Planner

Search our weather history database for the weather conditions in past years. The results will help you decide how hot, cold, wet, or windy it might be!

Date:

Astronomy

Nov. 17, 2012 Rise Set
Actual Time 6:14 AM PST 4:39 PM PST
Civil Twilight 5:48 AM PST 5:05 PM PST
Nautical Twilight 5:18 AM PST 5:35 PM PST
Astronomical Twilight 4:49 AM PST 6:05 PM PST
Moon 10:02 AM PST (11/17) 8:53 PM PST (11/17)
Length of Visible Light 11h 17m
Length of Day
10h 24m
Waxing Crescent, 21% of the Moon is Illuminated
Nov 17
Waxing Crescent
Nov 20
First Quarter
Nov 28
Full
Dec 6
Last Quarter
Dec 13
New

Hourly Weather History & Observations

Time (PST) Temp. Dew Point Humidity Pressure Visibility Wind Dir Wind Speed Gust Speed Precip Events Conditions
12:53 AM 66.9 °F 53.1 °F 61% 29.99 in 10.0 mi West 13.8 mph - N/A   Clear
1:53 AM 66.0 °F 53.1 °F 63% 29.99 in 10.0 mi WSW 12.7 mph - N/A   Clear
2:53 AM 64.9 °F 53.1 °F 65% 30.00 in 10.0 mi West 6.9 mph - N/A   Partly Cloudy
3:53 AM 66.0 °F 53.1 °F 63% 29.99 in 10.0 mi NNW 3.5 mph - N/A   Clear
4:53 AM 64.0 °F 53.1 °F 67% 30.00 in 10.0 mi West 6.9 mph - N/A   Clear
5:53 AM 63.0 °F 53.1 °F 70% 30.01 in 10.0 mi WSW 9.2 mph - N/A   Clear
6:53 AM 64.9 °F 53.1 °F 65% 30.03 in 10.0 mi WSW 10.4 mph - N/A   Clear
7:53 AM 66.0 °F 53.1 °F 63% 30.04 in 10.0 mi WSW 5.8 mph - N/A   Clear
8:53 AM 73.0 °F 53.1 °F 49% 30.05 in 10.0 mi Variable 4.6 mph - N/A   Clear
9:53 AM 78.1 °F 52.0 °F 40% 30.04 in 10.0 mi WSW 13.8 mph 19.6 mph N/A   Clear
10:53 AM 78.1 °F 51.1 °F 39% 30.03 in 10.0 mi West 10.4 mph 18.4 mph N/A   Clear
11:53 AM 80.1 °F 48.9 °F 34% 30.00 in 10.0 mi WNW 11.5 mph 20.7 mph N/A   Scattered Clouds
12:53 PM 80.1 °F 46.9 °F 31% 29.98 in 10.0 mi West 15.0 mph 21.9 mph N/A   Partly Cloudy
1:53 PM 81.0 °F 46.0 °F 29% 29.96 in 10.0 mi West 12.7 mph 20.7 mph N/A   Partly Cloudy
2:53 PM 78.1 °F 46.9 °F 33% 29.97 in 10.0 mi West 12.7 mph - N/A   Clear
3:53 PM 75.0 °F 48.0 °F 38% 29.97 in 10.0 mi West 11.5 mph - N/A   Clear
4:53 PM 72.0 °F 48.9 °F 44% 29.97 in 10.0 mi West 9.2 mph - N/A   Clear
5:53 PM 69.1 °F 48.9 °F 49% 29.98 in 10.0 mi West 8.1 mph - N/A   Clear
6:53 PM 68.0 °F 50.0 °F 52% 29.99 in 10.0 mi West 12.7 mph - N/A   Clear
7:53 PM 64.9 °F 48.9 °F 56% 30.00 in 10.0 mi WNW 5.8 mph - N/A   Clear
8:53 PM 64.9 °F 50.0 °F 58% 30.01 in 10.0 mi WNW 8.1 mph - N/A   Clear
9:53 PM 64.0 °F 48.9 °F 58% 30.01 in 10.0 mi WNW 9.2 mph - N/A   Clear
10:53 PM 63.0 °F 48.9 °F 60% 30.01 in 10.0 mi WNW 6.9 mph - N/A   Clear
11:53 PM 63.0 °F 48.0 °F 58% 30.01 in 10.0 mi WNW 9.2 mph - N/A   Clear